Time,TemperatureF,DewpointF,PressureIn,WindDirection,WindDirectionDegrees,WindSpeedMPH,WindSpeedGustMPH,Humidity,HourlyPrecipIn,Conditions,Clouds,dailyrainin,SolarRadiationWatts/m^2,SoftwareType,DateUTC
2013-05-02 00:00:00,47.4,37.7,30.40,North,5,0.0,0.0,69,0.00,,,0.00,0,Wunderground v.1.15,2013-05-02 04:00:00,
2013-05-02 00:02:00,47.3,37.6,30.40,North,5,0.0,0.0,69,0.00,,,0.00,0,Wunderground v.1.15,2013-05-02 04:02:00,
2013-05-02 00:04:00,47.2,37.5,30.40,North,5,0.0,0.0,69,0.00,,,0.00,0,Wunderground v.1.15,2013-05-02 04:04:00,
2013-05-02 00:08:00,47.1,37.4,30.40,North,5,0.0,0.0,69,0.00,,,0.00,0,Wunderground v.1.15,2013-05-02 04:08:00,
2013-05-02 00:12:00,46.8,37.5,30.39,North,5,0.0,0.0,70,0.00,,,0.00,0,Wunderground v.1.15,2013-05-02 04:12:00,
2013-05-02 00:14:00,46.7,37.8,30.40,North,5,0.0,0.0,71,0.00,,,0.00,0,Wunderground v.1.15,2013-05-02 04:14:00,
2013-05-02 00:20:00,46.6,37.0,30.40,North,5,0.0,0.0,69,0.00,,,0.00,0,Wunderground v.1.15,2013-05-02 04:20:00,
2013-05-02 00:26:00,46.3,37.4,30.40,North,5,0.0,0.0,71,0.00,,,0.00,0,Wunderground v.1.15,2013-05-02 04:26:00,
2013-05-02 00:32:00,46.2,37.0,30.40,North,5,0.0,0.0,70,0.00,,,0.00,0,Wunderground v.1.15,2013-05-02 04:32:00,
2013-05-02 00:38:00,46.2,37.3,30.40,North,5,0.0,0.0,71,0.00,,,0.00,0,Wunderground v.1.15,2013-05-02 04:38:00,
2013-05-02 00:44:00,46.1,37.6,30.40,North,5,0.0,0.0,72,0.00,,,0.00,0,Wunderground v.1.15,2013-05-02 04:44:00,
2013-05-02 00:50:00,45.9,37.0,30.40,North,5,0.0,0.0,71,0.00,,,0.00,0,Wunderground v.1.15,2013-05-02 04:50:00,
2013-05-02 00:56:00,45.5,37.0,30.40,North,5,0.0,0.0,72,0.00,,,0.00,0,Wunderground v.1.15,2013-05-02 04:56:00,
2013-05-02 01:02:00,45.2,36.7,30.40,North,5,0.0,0.0,72,0.00,,,0.00,0,Wunderground v.1.15,2013-05-02 05:02:00,
2013-05-02 01:08:00,45.2,36.7,30.40,North,355,0.0,3.0,72,0.00,,,0.00,0,Wunderground v.1.15,2013-05-02 05:08:00,
2013-05-02 01:14:00,45.3,36.8,30.40,SSW,212,1.0,2.0,72,0.00,,,0.00,0,Wunderground v.1.15,2013-05-02 05:14:00,
2013-05-02 01:20:00,45.1,36.6,30.40,SSW,212,0.0,0.0,72,0.00,,,0.00,0,Wunderground v.1.15,2013-05-02 05:20:00,
2013-05-02 01:26:00,44.9,36.8,30.41,SSW,212,0.0,1.0,73,0.00,,,0.00,0,Wunderground v.1.15,2013-05-02 05:26:00,
2013-05-02 01:32:00,44.6,36.5,30.41,SE,126,0.0,2.0,73,0.00,,,0.00,0,Wunderground v.1.15,2013-05-02 05:32:00,
2013-05-02 01:38:00,44.4,36.6,30.40,South,171,0.0,2.0,74,0.00,,,0.00,0,Wunderground v.1.15,2013-05-02 05:38:00,
2013-05-02 01:44:00,44.2,36.4,30.41,SW,217,0.0,1.0,74,0.00,,,0.00,0,Wunderground v.1.15,2013-05-02 05:44:00,
2013-05-02 01:50:00,43.9,36.5,30.41,SSE,161,0.0,1.0,75,0.00,,,0.00,0,Wunderground v.1.15,2013-05-02 05:50:00,
2013-05-02 01:56:00,44.0,36.2,30.40,SSE,159,1.0,1.0,74,0.00,,,0.00,0,Wunderground v.1.15,2013-05-02 05:56:00,
2013-05-02 02:02:00,44.0,36.6,30.40,NNE,28,0.0,1.0,75,0.00,,,0.00,0,Wunderground v.1.15,2013-05-02 06:02:00,
2013-05-02 02:08:00,43.7,36.6,30.41,NE,42,0.0,1.0,76,0.00,,,0.00,0,Wunderground v.1.15,2013-05-02 06:08:00,
2013-05-02 02:14:00,43.4,36.7,30.41,SE,126,0.0,0.0,77,0.00,,,0.00,0,Wunderground v.1.15,2013-05-02 06:14:00,
2013-05-02 02:20:00,43.6,36.5,30.40,East,81,0.0,1.0,76,0.00,,,0.00,0,Wunderground v.1.15,2013-05-02 06:20:00,
2013-05-02 02:26:00,43.3,36.6,30.40,East,81,0.0,1.0,77,0.00,,,0.00,0,Wunderground v.1.15,2013-05-02 06:26:00,
2013-05-02 02:32:00,43.2,36.5,30.41,East,81,0.0,0.0,77,0.00,,,0.00,0,Wunderground v.1.15,2013-05-02 06:32:00,
2013-05-02 02:38:00,42.7,36.6,30.41,East,81,0.0,0.0,79,0.00,,,0.00,0,Wunderground v.1.15,2013-05-02 06:38:00,
2013-05-02 02:44:00,42.4,36.3,30.41,SE,133,0.0,0.0,79,0.00,,,0.00,0,Wunderground v.1.15,2013-05-02 06:44:00,
2013-05-02 02:50:00,42.3,36.3,30.41,SE,133,0.0,0.0,79,0.00,,,0.00,0,Wunderground v.1.15,2013-05-02 06:50:00,
2013-05-02 02:56:00,42.5,36.4,30.40,SE,132,0.0,1.0,79,0.00,,,0.00,0,Wunderground v.1.15,2013-05-02 06:56:00,
2013-05-02 03:02:00,42.3,36.6,30.41,SE,132,0.0,0.0,80,0.00,,,0.00,0,Wunderground v.1.15,2013-05-02 07:02:00,
2013-05-02 03:08:00,42.2,36.5,30.41,SE,132,0.0,0.0,80,0.00,,,0.00,0,Wunderground v.1.15,2013-05-02 07:08:00,
2013-05-02 03:14:00,42.1,36.4,30.41,SE,132,0.0,0.0,80,0.00,,,0.00,0,Wunderground v.1.15,2013-05-02 07:14:00,
2013-05-02 03:20:00,42.0,36.3,30.41,SE,132,0.0,0.0,80,0.00,,,0.00,0,Wunderground v.1.15,2013-05-02 07:20:00,
2013-05-02 03:26:00,41.6,35.9,30.41,SE,132,0.0,0.0,80,0.00,,,0.00,0,Wunderground v.1.15,2013-05-02 07:26:00,
2013-05-02 03:32:00,41.5,36.1,30.41,SE,132,0.0,0.0,81,0.00,,,0.00,0,Wunderground v.1.15,2013-05-02 07:32:00,
2013-05-02 03:38:00,41.7,36.0,30.41,SE,132,0.0,1.0,80,0.00,,,0.00,0,Wunderground v.1.15,2013-05-02 07:38:00,
2013-05-02 03:44:00,41.5,36.1,30.41,SE,132,0.0,0.0,81,0.00,,,0.00,0,Wunderground v.1.15,2013-05-02 07:44:00,
2013-05-02 03:50:00,41.7,36.3,30.41,SE,132,0.0,0.0,81,0.00,,,0.00,0,Wunderground v.1.15,2013-05-02 07:50:00,
2013-05-02 03:56:00,41.5,36.1,30.41,SE,132,0.0,0.0,81,0.00,,,0.00,0,Wunderground v.1.15,2013-05-02 07:56:00,
2013-05-02 04:02:00,41.3,35.9,30.41,SE,132,0.0,0.0,81,0.00,,,0.00,0,Wunderground v.1.15,2013-05-02 08:02:00,
2013-05-02 04:08:00,41.0,35.9,30.41,SE,132,0.0,0.0,82,0.00,,,0.00,0,Wunderground v.1.15,2013-05-02 08:08:00,
2013-05-02 04:14:00,40.9,36.1,30.41,SE,132,0.0,0.0,83,0.00,,,0.00,0,Wunderground v.1.15,2013-05-02 08:14:00,
2013-05-02 04:20:00,40.5,36.0,30.42,SE,132,0.0,0.0,84,0.00,,,0.00,0,Wunderground v.1.15,2013-05-02 08:20:00,
2013-05-02 04:26:00,40.4,35.9,30.41,SE,132,0.0,0.0,84,0.00,,,0.00,0,Wunderground v.1.15,2013-05-02 08:26:00,
2013-05-02 04:32:00,40.3,36.1,30.41,SE,132,0.0,0.0,85,0.00,,,0.00,0,Wunderground v.1.15,2013-05-02 08:32:00,
2013-05-02 04:38:00,40.0,35.9,30.41,SE,132,0.0,0.0,85,0.00,,,0.00,0,Wunderground v.1.15,2013-05-02 08:38:00,
2013-05-02 04:44:00,40.0,35.9,30.41,SE,132,0.0,0.0,85,0.00,,,0.00,0,Wunderground v.1.15,2013-05-02 08:44:00,
2013-05-02 04:50:00,39.8,35.7,30.41,SE,132,0.0,0.0,85,0.00,,,0.00,0,Wunderground v.1.15,2013-05-02 08:50:00,
2013-05-02 04:56:00,39.7,35.9,30.41,SE,132,0.0,0.0,86,0.00,,,0.00,0,Wunderground v.1.15,2013-05-02 08:56:00,
2013-05-02 05:02:00,39.5,35.7,30.41,SE,132,0.0,0.0,86,0.00,,,0.00,0,Wunderground v.1.15,2013-05-02 09:02:00,
2013-05-02 05:08:00,39.4,35.9,30.42,SE,132,0.0,0.0,87,0.00,,,0.00,0,Wunderground v.1.15,2013-05-02 09:08:00,
2013-05-02 05:14:00,39.5,36.0,30.42,SE,132,0.0,0.0,87,0.00,,,0.00,0,Wunderground v.1.15,2013-05-02 09:14:00,
2013-05-02 05:20:00,39.3,35.8,30.42,SE,132,0.0,0.0,87,0.00,,,0.00,0,Wunderground v.1.15,2013-05-02 09:20:00,
2013-05-02 05:26:00,38.9,35.6,30.42,SE,132,0.0,0.0,88,0.00,,,0.00,0,Wunderground v.1.15,2013-05-02 09:26:00,
2013-05-02 05:32:00,38.9,35.6,30.42,SE,132,0.0,0.0,88,0.00,,,0.00,0,Wunderground v.1.15,2013-05-02 09:32:00,
2013-05-02 05:38:00,38.8,35.6,30.42,SE,132,0.0,0.0,88,0.00,,,0.00,0,Wunderground v.1.15,2013-05-02 09:38:00,
2013-05-02 05:44:00,38.7,35.5,30.42,SE,132,0.0,0.0,88,0.00,,,0.00,0,Wunderground v.1.15,2013-05-02 09:44:00,
2013-05-02 05:50:00,38.5,35.5,30.42,SE,132,0.0,0.0,89,0.00,,,0.00,0,Wunderground v.1.15,2013-05-02 09:50:00,
2013-05-02 05:56:00,38.4,35.4,30.42,SE,132,0.0,0.0,89,0.00,,,0.00,0,Wunderground v.1.15,2013-05-02 09:56:00,
2013-05-02 06:02:00,38.3,35.6,30.42,SE,132,0.0,0.0,90,0.00,,,0.00,0,Wunderground v.1.15,2013-05-02 10:02:00,
2013-05-02 06:08:00,38.2,35.5,30.42,SE,132,0.0,0.0,90,0.00,,,0.00,0,Wunderground v.1.15,2013-05-02 10:08:00,
2013-05-02 06:14:00,38.0,35.3,30.43,SE,132,0.0,0.0,90,0.00,,,0.00,5,Wunderground v.1.15,2013-05-02 10:14:00,
2013-05-02 06:20:00,37.9,35.2,30.43,SE,132,0.0,0.0,90,0.00,,,0.00,7,Wunderground v.1.15,2013-05-02 10:20:00,
2013-05-02 06:26:00,37.6,34.9,30.43,SE,132,0.0,0.0,90,0.00,,,0.00,11,Wunderground v.1.15,2013-05-02 10:26:00,
2013-05-02 06:32:00,37.5,35.1,30.43,SE,132,0.0,0.0,91,0.00,,,0.00,14,Wunderground v.1.15,2013-05-02 10:32:00,
2013-05-02 06:38:00,37.5,35.1,30.43,SE,132,0.0,0.0,91,0.00,,,0.00,16,Wunderground v.1.15,2013-05-02 10:38:00,
2013-05-02 06:44:00,37.5,35.1,30.43,SE,132,0.0,0.0,91,0.00,,,0.00,18,Wunderground v.1.15,2013-05-02 10:44:00,
2013-05-02 06:50:00,37.8,35.4,30.44,SE,132,0.0,0.0,91,0.00,,,0.00,21,Wunderground v.1.15,2013-05-02 10:50:00,
2013-05-02 06:56:00,38.1,35.7,30.44,SE,132,0.0,0.0,91,0.00,,,0.00,23,Wunderground v.1.15,2013-05-02 10:56:00,
2013-05-02 07:02:00,38.6,35.9,30.44,SE,132,0.0,0.0,90,0.00,,,0.00,25,Wunderground v.1.15,2013-05-02 11:02:00,
2013-05-02 07:08:00,39.2,36.2,30.44,SE,132,0.0,0.0,89,0.00,,,0.00,26,Wunderground v.1.15,2013-05-02 11:08:00,
2013-05-02 07:14:00,39.9,36.6,30.44,SE,132,0.0,0.0,88,0.00,,,0.00,28,Wunderground v.1.15,2013-05-02 11:14:00,
2013-05-02 07:20:00,40.4,36.8,30.44,SE,132,0.0,0.0,87,0.00,,,0.00,28,Wunderground v.1.15,2013-05-02 11:20:00,
2013-05-02 07:26:00,40.8,37.2,30.45,SE,132,0.0,0.0,87,0.00,,,0.00,47,Wunderground v.1.15,2013-05-02 11:26:00,
2013-05-02 07:32:00,41.5,37.3,30.45,SE,132,0.0,0.0,85,0.00,,,0.00,190,Wunderground v.1.15,2013-05-02 11:32:00,
2013-05-02 07:38:00,42.5,38.3,30.45,SE,132,0.0,0.0,85,0.00,,,0.00,209,Wunderground v.1.15,2013-05-02 11:38:00,